Simultaneous Nadir Overpasses (SNOs) Predictions

Prediction of SNOs between GOES-17 and TERRA Satellite Orbit:

Table of predicted SNOs for the next 14.0 days since TLE Epoch: 3/7/2025
Index Date Time (GOES-17) GOES-17 Lat,Lon TERRA Lat,Lon Distance(km) Time Diff (sec)
1 03/08/2025 04:18:13 0.00,-104.39 0.51,-101.90 283.25 80
2 03/08/2025 16:37:48 -0.00,-104.41 0.46,-106.67 255.83 80
3 03/10/2025 16:16:21 -0.00,-104.41 -0.47,-102.14 258.15 80
4 03/11/2025 04:36:03 0.00,-104.39 -0.51,-106.94 288.51 80
5 03/13/2025 04:19:56 0.01,-104.40 0.45,-102.41 226.43 80
6 03/13/2025 16:39:30 -0.01,-104.42 0.56,-107.17 312.04 80
7 03/15/2025 16:18:02 -0.01,-104.43 -0.37,-102.64 203.38 80
8 03/16/2025 04:37:43 0.01,-104.41 -0.65,-107.42 343.16 80
9 03/18/2025 04:21:35 0.01,-104.42 0.31,-102.89 172.49 80
10 03/18/2025 16:41:08 -0.01,-104.44 0.68,-107.66 365.71 80
11 03/20/2025 16:19:41 -0.01,-104.44 -0.31,-103.13 149.76 80
12 03/21/2025 04:39:21 0.01,-104.42 -0.70,-107.92 397.03 80
